Diamond Valley Lake Weather Center

Moon Phase Calendar



Diamond Valley Lake Water Level
Online Cameras

 


      

Current Conditions in Winchester
12/2/2022 3:52:12 AM

48°F
Feels Like 48
Clouds
Humidity
82%
Pressure
30.09"
Wind
0
Dew Point
43°F
UV Index
0/10 (Low)
Visibility
6 mi

Hourly Forecast

Date & Time Fri, Dec 2
3:00 AM
Fri, Dec 2
4:00 AM
Fri, Dec 2
5:00 AM
Fri, Dec 2
6:00 AM
Fri, Dec 2
7:00 AM
Fri, Dec 2
8:00 AM
Fri, Dec 2
9:00 AM
Fri, Dec 2
10:00 AM
Fri, Dec 2
11:00 AM
Fri, Dec 2
12:00 PM
Fri, Dec 2
1:00 PM
Fri, Dec 2
2:00 PM
Fri, Dec 2
3:00 PM
Fri, Dec 2
4:00 PM
Fri, Dec 2
5:00 PM
Fri, Dec 2
6:00 PM
Fri, Dec 2
7:00 PM
Fri, Dec 2
8:00 PM
Fri, Dec 2
9:00 PM
Fri, Dec 2
10:00 PM
Fri, Dec 2
11:00 PM
Sat, Dec 3
12:00 AM
Sat, Dec 3
1:00 AM
Sat, Dec 3
2:00 AM
Sat, Dec 3
3:00 AM
Sat, Dec 3
4:00 AM
Sat, Dec 3
5:00 AM
Sat, Dec 3
6:00 AM
Sat, Dec 3
7:00 AM
Sat, Dec 3
8:00 AM
Sat, Dec 3
9:00 AM
Sat, Dec 3
10:00 AM
Sat, Dec 3
11:00 AM
Sat, Dec 3
12:00 PM
Sat, Dec 3
1:00 PM
Sat, Dec 3
2:00 PM
Sat, Dec 3
3:00 PM
Sat, Dec 3
4:00 PM
Sat, Dec 3
5:00 PM
Sat, Dec 3
6:00 PM
Sat, Dec 3
7:00 PM
Sat, Dec 3
8:00 PM
Sat, Dec 3
9:00 PM
Sat, Dec 3
10:00 PM
Sat, Dec 3
11:00 PM
Sun, Dec 4
12:00 AM
Sun, Dec 4
1:00 AM
Sun, Dec 4
2:00 AM
Condition
Clouds

Clouds

Clouds

Clouds

Clouds

Clouds

Clouds

Clouds

Clouds

Clouds

Clouds

Clouds

Clouds

Clouds

Clouds

Clouds

Clouds

Clouds

Clouds

Clouds

Clouds

Clouds

Clouds

Clouds

Clouds

Clouds

Clouds

Clouds

Clouds

Clouds

Clouds

Clouds

Clouds

Clouds

Clouds

Clouds

Clouds

Clouds

Clouds

Clouds

Clouds

Clouds

Clouds

Clouds

Clouds

Clouds

Clouds

Clouds
Temperature 48°F48°F48°F48°F48°F49°F51°F54°F57°F58°F59°F59°F59°F58°F55°F53°F52°F52°F52°F52°F51°F51°F51°F51°F50°F50°F50°F50°F51°F57°F59°F61°F63°F65°F66°F66°F66°F63°F57°F55°F53°F52°F51°F51°F50°F50°F50°F50°F
Feels Like 46°F47°F48°F48°F48°F49°F49°F52°F55°F57°F57°F57°F57°F56°F53°F51°F50°F51°F51°F50°F50°F49°F49°F49°F49°F50°F50°F50°F49°F55°F57°F60°F62°F63°F64°F64°F64°F62°F55°F53°F52°F51°F50°F49°F49°F49°F50°F50°F
Cloudiness 94%100%99%98%98%98%95%93%100%100%100%100%100%100%100%100%100%100%100%100%100%100%100%100%100%100%100%100%100%100%100%98%100%99%100%100%100%99%100%100%100%100%100%91%70%85%89%80%
Visibility 6 mi6 mi6 mi6 mi6 mi6 mi6 mi6 mi6 mi6 mi6 mi6 mi6 mi6 mi6 mi6 mi6 mi6 mi6 mi6 mi6 mi6 mi6 mi6 mi6 mi6 mi6 mi6 mi6 mi6 mi6 mi6 mi6 mi6 mi6 mi6 mi6 mi6 mi6 mi6 mi6 mi6 mi6 mi6 mi6 mi6 mi6 mi6 mi
Precipitation 0%0%0%0%0%0%0%0%0%0%0%0%0%0%0%0%0%0%0%0%0%0%0%0%0%0%0%0%0%0%0%0%0%0%0%0%0%0%0%0%0%0%0%0%0%0%0%0%
Humidity 81%82%81%80%77%74%69%64%59%56%55%55%56%58%65%70%72%71%70%71%73%73%73%73%74%74%74%75%69%59%53%49%47%45%44%44%45%53%66%73%79%82%83%83%83%84%84%84%
Dew Point 42°F43°F42°F42°F41°F41°F41°F41°F42°F42°F42°F42°F42°F43°F43°F43°F42°F42°F42°F42°F42°F42°F42°F41°F41°F41°F41°F41°F40°F42°F41°F41°F42°F42°F43°F43°F43°F45°F44°F45°F46°F46°F46°F45°F45°F44°F44°F44°F
Pressure 30.09"30.09"30.09"30.09"30.12"30.15"30.15"30.15"30.12"30.09"30.06"30.06"30.06"30.06"30.06"30.06"30.09"30.09"30.09"30.09"30.09"30.06"30.06"30.06"30.06"30.06"30.06"30.09"30.09"30.12"30.12"30.12"30.12"30.09"30.06"30.03"30.06"30.06"30.06"30.09"30.12"30.12"30.12"30.12"30.12"30.12"30.12"30.12"
Wind Speed 4.7 mph3.3 mph1.9 mph1.3 mph0.6 mph0.9 mph0.7 mph1.6 mph2.2 mph3.8 mph4.2 mph3.7 mph2.9 mph3.7 mph3.8 mph3.3 mph2.5 mph3.1 mph2.9 mph2.6 mph3.2 mph2.7 mph2.4 mph1.7 mph1.6 mph0.8 mph1 mph0.9 mph1.4 mph1.2 mph1.2 mph1.3 mph1.7 mph4 mph4.2 mph3.2 mph3.6 mph4.2 mph3.2 mph3 mph2.2 mph1.8 mph0.8 mph1.5 mph1.1 mph1.4 mph2 mph2.6 mph
Wind
Direction
113°
ESE
131°
SE
150°
SSE
178°
S
66°
ENE
76°
ENE
92°
E

N
346°
NNW
316°
NW
314°
NW
338°
NNW

N
327°
NNW
333°
NNW
348°
NNW
350°
N
11°
N
26°
NNE
51°
NE
55°
NE
64°
ENE
65°
ENE
46°
NE
51°
NE
52°
NE
79°
E
109°
ESE
126°
SE
263°
W
299°
WNW
236°
SW
214°
SW
248°
WSW
250°
WSW
238°
WSW
233°
SW
218°
SW
227°
SW
219°
SW
209°
SSW
188°
S
156°
SSE
97°
E
20°
NNE
39°
NE
44°
NE
68°
ENE

Daily Forecast

Date High Low Precip. Humidity
Today
Dec 2

Clouds
59 °F
47 °F
0%
59%
Saturday
Dec 3

Clouds
66 °F
50 °F
0%
47%
Sunday
Dec 4

Clouds
63 °F
49 °F
12%
59%
Monday
Dec 5

Rain
59 °F
47 °F
20%
61%
Tuesday
Dec 6

Clouds
56 °F
43 °F
9%
58%
Wednesday
Dec 7

Clouds
55 °F
40 °F
3%
59%
Thursday
Dec 8

Clouds
61 °F
39 °F
0%
37%
Friday
Dec 9

Clouds
55 °F
39 °F
11%
49%
Saturday
Dec 10

Rain
53 °F
41 °F
40%
60%
Sunday
Dec 11

Clear
64 °F
38 °F
0%
19%
Monday
Dec 12

Clear
66 °F
45 °F
0%
17%
Tuesday
Dec 13

Clouds
57 °F
41 °F
15%
63%
Wednesday
Dec 14

Rain
49 °F
39 °F
100%
61%
Thursday
Dec 15

Clear
52 °F
36 °F
0%
35%
Friday
Dec 16

Clear
53 °F
36 °F
0%
34%
Saturday
Dec 17

Rain
47 °F
42 °F
97%
78%

Temperature 8-14 Day Outlook



Precipitation 8-14 Day Outlook




Quick Links
Diamond Valley Lake News
Diamond Valley Lake Photos
Diamond Valley Lake Videos




About Us
Contact Us
Site Map
Search Site
Advertise With Us
   
DiamondValley.LakesOnline.com
THE DIAMOND VALLEY LAKE WEBSITE

Copyright 2022, Lakes Online
Privacy    |    Legal